[[{"header":{"parameterUnit":"m.s-1","parameterCategory":1,"la1":30.2991,"la2":30.254,"lo1":-89.0895,"lo2":-89.0444,"dy":0.0017,"dx":0.0017,"nx":28,"ny":28,"refTime":"2023-04-02T21:00:00:Z","depth":0,"parameterNumber":2,"parameterNumberName":"U-component_of_WINDS"},"data":[0,0,0,0,0,0,0,0,0,0,0,0,0,0,0,0,0,0,0,0,0,0,0,0,0,0,0,0,0,0,0,0,0,0,0,0,0,0,0,0,0,0,0,0,0,0,0,0,0,0,0,0,0,0,0,0,0,0,-1.6078,-1.6078,0,-1.6053,-1.6053,-1.6052,-1.6032,-1.6032,-1.6032,-1.6031,-1.6006,-1.6006,-1.6005,0,0,0,0,0,0,0,0,0,0,0,0,0,-1.6111,-1.6111,-1.6079,-1.6078,-1.6078,-1.6053,-1.6053,-1.6052,-1.6032,-1.6032,-1.6032,-1.6031,-1.6006,-1.6006,-1.6005,0,0,0,0,0,0,0,0,0,0,0,0,0,-1.6093,-1.6111,-1.6079,-1.6065,-1.6063,-1.6053,-1.6053,-1.6052,-1.6032,-1.6032,-1.6031,-1.6031,-1.6007,-1.6006,-1.6005,-1.6007,0,0,-1.6003,-1.6003,0,0,0,0,0,0,0,0,-1.6094,-1.6091,-1.6067,-1.6066,-1.6064,-1.6045,-1.6055,-1.6037,-1.6032,-1.6044,-1.6031,-1.6031,-1.6019,-1.6018,-1.6014,-1.6005,-1.6004,-1.6003,-1.6002,-1.6002,-1.6002,0,0,0,0,0,0,0,-1.6095,-1.6092,-1.6068,-1.6067,-1.6065,-1.606,-1.6057,-1.6051,-1.6034,-1.6043,-1.6041,-1.6039,-1.6019,-1.6014,-1.6013,-1.6004,-1.6003,-1.6002,-1.6002,-1.6001,-1.5996,-1.5996,0,0,0,0,0,0,-1.6098,-1.6094,-1.6069,-1.6068,-1.6078,-1.606,-1.6057,-1.6052,-1.6034,-1.6031,-1.6039,-1.6038,-1.6016,-1.6014,-1.6012,-1.6012,-1.6002,-1.6001,-1.6001,-1.5996,-1.5996,-1.5996,0,0,0,0,0,0,-1.6099,-1.6096,-1.607,-1.608,-1.6077,-1.606,-1.6054,-1.6051,-1.6047,-1.6031,-1.6028,-1.6038,-1.6015,-1.6013,-1.6008,-1.6011,-1.6001,-1.6,-1.5995,-1.5996,-1.5996,-1.6013,0,0,0,0,0,0,-1.61,-1.6097,-1.6097,-1.608,-1.6076,-1.6066,-1.6054,-1.6051,-1.6046,-1.6044,-1.6029,-1.6026,-1.6015,-1.6009,-1.6007,-1.601,-1.6,-1.5995,-1.5996,-1.5996,-1.6012,-1.6014,-1.6015,0,0,0,0,0,-1.6101,-1.6103,-1.6097,-1.6094,-1.6076,-1.6067,-1.6064,-1.6051,-1.6046,-1.6046,-1.6036,-1.6026,-1.6011,-1.6009,-1.6007,-1.6009,-1.5995,-1.5995,-1.5996,-1.6011,-1.6013,-1.6015,0,0,0,0,0,0,-1.612,-1.61,-1.6094,-1.609,-1.608,-1.6063,-1.6063,-1.6054,-1.6046,-1.6045,-1.603,-1.6026,-1.6023,-1.6016,-1.6013,-1.6009,-1.6002,-1.6002,-1.6014,-1.6016,-1.6018,-1.6019,-1.5999,0,0,0,0,0,-1.6124,-1.6118,-1.6101,-1.6099,-1.6095,-1.608,-1.6075,-1.6066,-1.6056,-1.6052,-1.6041,-1.6031,-1.6024,-1.602,-1.6013,-1.6011,-1.6008,-1.6012,-1.6014,-1.6015,-1.6015,-1.6014,-1.6015,-1.5999,-1.5998,-1.5998,0,0,-1.6132,-1.612,-1.6117,-1.6103,-1.6094,-1.6088,-1.6076,-1.6071,-1.6066,-1.6051,-1.6045,-1.6037,-1.6026,-1.6022,-1.602,-1.6016,-1.6019,-1.6016,-1.6017,-1.6016,-1.6014,-1.6016,-1.6017,-1.5999,-1.5999,-1.5999,0,0,-1.6142,-1.6133,-1.613,-1.6122,-1.6109,-1.6099,-1.6098,-1.6083,-1.6077,-1.6071,-1.6059,-1.6054,-1.6043,-1.6035,-1.6029,-1.6038,-1.6029,-1.6036,-1.6044,-1.6043,-1.6044,-1.6046,-1.6048,-1.6049,-1.6036,-1.6036,-1.6036,0,-1.6153,-1.6143,-1.613,-1.6125,-1.6119,-1.6105,-1.6102,-1.6095,-1.608,-1.6076,-1.6072,-1.6057,-1.6048,-1.6043,-1.6045,-1.6041,-1.604,-1.6037,-1.6045,-1.6046,-1.6047,-1.6049,-1.605,-1.6037,-1.6037,-1.6037,-1.6037,0,-1.6157,-1.6151,-1.6151,-1.6136,-1.6131,-1.6127,-1.6113,-1.6109,-1.6101,-1.6091,-1.6086,-1.6075,-1.6065,-1.6064,-1.6056,-1.6057,-1.6055,-1.6048,-1.604,-1.605,-1.6051,-1.6052,-1.6038,-1.6038,-1.6038,-1.6038,0,0,-1.6178,-1.6157,-1.6157,-1.615,-1.6135,-1.613,-1.6126,-1.6116,-1.6113,-1.6104,-1.61,-1.6091,-1.6084,-1.6078,-1.6069,-1.6068,-1.6075,-1.6062,-1.6061,-1.6064,-1.6076,-1.608,-1.6081,-1.607,-1.607,-1.607,-1.6076,0,-1.6186,-1.6176,-1.6164,-1.616,-1.6153,-1.614,-1.6137,-1.6127,-1.6119,-1.6113,-1.6104,-1.6097,-1.609,-1.6086,-1.6084,-1.6075,-1.6077,-1.6074,-1.6066,-1.6065,-1.6068,-1.6082,-1.6086,-1.6093,-1.6077,-1.6077,-1.6077,0,-1.6193,-1.6184,-1.6178,-1.6164,-1.6161,-1.6158,-1.6147,-1.6142,-1.6131,-1.6125,-1.6119,-1.6109,-1.6105,-1.6098,-1.6091,-1.609,-1.6086,-1.6081,-1.6081,-1.6078,-1.6071,-1.6079,-1.6095,-1.6096,-1.6078,-1.6078,-1.6078,0,-1.6208,-1.6194,-1.6189,-1.6184,-1.6167,-1.6165,-1.6158,-1.6147,-1.6142,-1.6134,-1.613,-1.6122,-1.6117,-1.6111,-1.6099,-1.6096,-1.6094,-1.6087,-1.6089,-1.6089,-1.6088,-1.6088,-1.6102,-1.6087,-1.6087,-1.6087,-1.6087,0,-1.6217,-1.6213,-1.6195,-1.6192,-1.6188,-1.6175,-1.6172,-1.6164,-1.6154,-1.6149,-1.6138,-1.6134,-1.612,-1.6114,-1.6106,-1.6101,-1.6099,-1.6094,-1.6092,-1.6095,-1.6095,-1.6091,-1.609,-1.6087,-1.6087,-1.6087,-1.6087,0,-1.6232,-1.622,-1.6213,-1.6198,-1.6194,-1.6192,-1.6179,-1.6175,-1.6166,-1.616,-1.6158,-1.6145,-1.6137,-1.6126,-1.6116,-1.611,-1.6107,-1.6103,-1.611,-1.6108,-1.6111,-1.611,-1.6122,-1.6123,-1.6108,-1.6108,-1.6109,0,-1.6238,-1.6235,-1.6219,-1.6215,-1.6208,-1.6202,-1.6196,-1.6183,-1.6178,-1.6166,-1.6164,-1.6156,-1.6149,-1.6138,-1.6127,-1.6119,-1.6115,-1.612,-1.6114,-1.6117,-1.6114,-1.6114,-1.6114,-1.6121,-1.6121,-1.6121,-1.6121,0,-1.625,-1.6244,-1.6236,-1.6226,-1.622,-1.6212,-1.6203,-1.6201,-1.6186,-1.6181,-1.6173,-1.6168,-1.6157,-1.6149,-1.614,-1.6133,-1.6125,-1.6124,-1.6123,-1.6126,-1.613,-1.6127,-1.6113,-1.6123,-1.6123,-1.6123,-1.6123,-1.6123,-1.626,-1.6256,-1.6245,-1.6237,-1.6229,-1.6221,-1.6217,-1.6208,-1.6201,-1.6191,-1.6184,-1.6177,-1.6167,-1.6153,-1.6147,-1.6141,-1.6138,-1.6138,-1.6138,-1.6137,-1.6138,-1.6131,-1.614,-1.614,-1.614,-1.6139,-1.6139,0,-1.627,-1.6262,-1.6255,-1.6243,-1.6237,-1.623,-1.622,-1.6215,-1.6209,-1.62,-1.6193,-1.6184,-1.6176,-1.6165,-1.6157,-1.6155,-1.6151,-1.6153,-1.6152,-1.6151,-1.6142,-1.6143,-1.6156,-1.6156,-1.6156,-1.6156,-1.6156,-1.6156,-1.6275,-1.6269,-1.6262,-1.6252,-1.6244,-1.6236,-1.6231,-1.6224,-1.6217,-1.6207,-1.6201,-1.6194,-1.6184,-1.6175,-1.6168,-1.6165,-1.6162,-1.6165,-1.6161,-1.6153,-1.6151,-1.615,-1.615,-1.6165,-1.6165,-1.617,-1.617,-1.617]},{"header":{"parameterUnit":"m.s-1","parameterCategory":1,"la1":30.2991,"la2":30.254,"lo1":-89.0895,"lo2":-89.0444,"dy":0.0017,"dx":0.0017,"nx":28,"ny":28,"refTime":"2023-04-02T21:00:00:Z","depth":0,"parameterNumber":3,"parameterNumberName":"V-component_of_WINDS"},"data":[0,0,0,0,0,0,0,0,0,0,0,0,0,0,0,0,0,0,0,0,0,0,0,0,0,0,0,0,0,0,0,0,0,0,0,0,0,0,0,0,0,0,0,0,0,0,0,0,0,0,0,0,0,0,0,0,0,0,3.237,3.237,0,3.2371,3.2371,3.2371,3.2371,3.2371,3.2371,3.2371,3.237,3.237,3.237,0,0,0,0,0,0,0,0,0,0,0,0,0,3.2365,3.2365,3.237,3.237,3.237,3.2371,3.2371,3.2371,3.2371,3.2371,3.2371,3.2371,3.237,3.237,3.237,0,0,0,0,0,0,0,0,0,0,0,0,0,3.2367,3.2365,3.237,3.237,3.237,3.2371,3.2371,3.2371,3.2371,3.2371,3.2371,3.2371,3.237,3.237,3.237,3.237,0,0,3.237,3.237,0,0,0,0,0,0,0,0,3.2367,3.2367,3.237,3.237,3.237,3.2371,3.2369,3.2371,3.2371,3.2371,3.2371,3.2371,3.237,3.237,3.237,3.237,3.237,3.237,3.237,3.237,3.237,0,0,0,0,0,0,0,3.2367,3.2367,3.237,3.237,3.237,3.2369,3.237,3.2369,3.237,3.2371,3.2371,3.2371,3.237,3.237,3.237,3.237,3.237,3.237,3.237,3.237,3.2371,3.2371,0,0,0,0,0,0,3.2367,3.2367,3.237,3.237,3.2368,3.2369,3.237,3.2371,3.237,3.237,3.2371,3.2371,3.237,3.237,3.237,3.2371,3.237,3.237,3.237,3.2371,3.2371,3.2371,0,0,0,0,0,0,3.2367,3.2367,3.237,3.2369,3.2369,3.237,3.2371,3.2371,3.2371,3.2371,3.2371,3.2371,3.237,3.237,3.237,3.2371,3.237,3.237,3.2371,3.2371,3.2371,3.2373,0,0,0,0,0,0,3.2367,3.2367,3.2367,3.2369,3.2369,3.2371,3.2371,3.2371,3.2371,3.2371,3.2371,3.2371,3.237,3.2371,3.237,3.2371,3.237,3.2371,3.2371,3.2371,3.2373,3.2373,3.2373,0,0,0,0,0,3.2366,3.2367,3.2367,3.2368,3.237,3.2371,3.2371,3.2371,3.2371,3.2371,3.2371,3.2371,3.2371,3.2371,3.237,3.2371,3.2371,3.2371,3.2371,3.2373,3.2373,3.2373,0,0,0,0,0,0,3.2365,3.2367,3.2368,3.2369,3.237,3.2371,3.2371,3.2372,3.2372,3.2372,3.2371,3.2371,3.2372,3.2371,3.2371,3.2372,3.2371,3.2371,3.2372,3.2372,3.2373,3.2373,3.237,0,0,0,0,0,3.2365,3.2366,3.2368,3.2369,3.237,3.237,3.2371,3.2371,3.2372,3.2372,3.2372,3.2372,3.2372,3.2372,3.2372,3.2373,3.2373,3.2373,3.2373,3.2373,3.2373,3.2375,3.2375,3.2371,3.2371,3.2371,0,0,3.2364,3.2366,3.2367,3.2369,3.2369,3.2371,3.2371,3.2372,3.2372,3.2372,3.2373,3.2373,3.2372,3.2373,3.2373,3.2373,3.2375,3.2374,3.2374,3.2374,3.2375,3.2375,3.2375,3.2371,3.2371,3.2371,0,0,3.2364,3.2366,3.2367,3.2368,3.237,3.2371,3.2371,3.2372,3.2373,3.2374,3.2374,3.2374,3.2374,3.2375,3.2375,3.2376,3.2376,3.2376,3.2377,3.2378,3.2379,3.2379,3.238,3.2381,3.2376,3.2376,3.2376,0,3.2363,3.2366,3.2367,3.2369,3.237,3.2371,3.2372,3.2373,3.2374,3.2375,3.2374,3.2375,3.2375,3.2376,3.2377,3.2377,3.2377,3.2376,3.2379,3.2379,3.2379,3.238,3.2381,3.2376,3.2376,3.2376,3.2376,0,3.2365,3.2367,3.2368,3.2371,3.2372,3.2373,3.2374,3.2375,3.2376,3.2376,3.2378,3.2378,3.2378,3.2379,3.2378,3.238,3.238,3.2379,3.2378,3.238,3.2381,3.2381,3.2377,3.2377,3.2377,3.2376,0,0,3.2364,3.2368,3.2369,3.237,3.2373,3.2374,3.2375,3.2377,3.2378,3.2379,3.238,3.2381,3.2381,3.2381,3.2381,3.2382,3.2384,3.2381,3.2381,3.2382,3.2387,3.2387,3.2388,3.2384,3.2384,3.2384,3.2387,0,3.2365,3.2369,3.237,3.2373,3.2375,3.2376,3.2378,3.2379,3.238,3.2381,3.2382,3.2383,3.2382,3.2382,3.2383,3.2384,3.2385,3.2383,3.2385,3.2385,3.2385,3.2388,3.2389,3.2392,3.2387,3.2387,3.2387,0,3.2366,3.2369,3.2372,3.2375,3.2376,3.2378,3.238,3.2381,3.2383,3.2383,3.2384,3.2385,3.2386,3.2385,3.2387,3.2386,3.2387,3.2387,3.2387,3.2387,3.2386,3.2389,3.2393,3.2393,3.2388,3.2388,3.2388,0,3.2365,3.237,3.2373,3.2374,3.2377,3.2379,3.238,3.2382,3.2383,3.2385,3.2386,3.2387,3.2388,3.2389,3.2389,3.2388,3.2391,3.239,3.2392,3.2392,3.2393,3.2393,3.2397,3.2392,3.2392,3.2392,3.2392,0,3.2366,3.2369,3.2373,3.2374,3.2377,3.2379,3.2381,3.2383,3.2384,3.2386,3.2387,3.2388,3.2389,3.239,3.239,3.2393,3.2393,3.2393,3.2393,3.2393,3.2393,3.2394,3.2394,3.2392,3.2392,3.2392,3.2392,0,3.2366,3.2369,3.2372,3.2376,3.2377,3.2379,3.2382,3.2384,3.2385,3.2387,3.2388,3.239,3.2392,3.2392,3.2394,3.2395,3.2397,3.2397,3.2397,3.2397,3.2399,3.2399,3.2404,3.2405,3.2399,3.24,3.24,0,3.2367,3.2369,3.2374,3.2375,3.2377,3.238,3.2382,3.2384,3.2386,3.2388,3.239,3.2392,3.2394,3.2397,3.2398,3.24,3.24,3.2401,3.24,3.24,3.2401,3.2401,3.2401,3.2402,3.2402,3.2402,3.2402,0,3.2368,3.237,3.2373,3.2377,3.2379,3.2382,3.2385,3.2386,3.2388,3.239,3.2393,3.2395,3.2398,3.24,3.2402,3.2403,3.2403,3.2402,3.2403,3.2403,3.2404,3.2404,3.2398,3.2402,3.2402,3.2402,3.2402,3.2402,3.2369,3.2371,3.2375,3.2379,3.2381,3.2384,3.2386,3.2389,3.2391,3.2395,3.2395,3.2398,3.2401,3.2404,3.2405,3.2407,3.2406,3.2407,3.2407,3.2407,3.2408,3.2403,3.2407,3.2407,3.2407,3.2407,3.2407,0,3.237,3.2373,3.2377,3.2382,3.2384,3.2385,3.2389,3.2391,3.2394,3.2397,3.2399,3.2403,3.2405,3.2407,3.2409,3.2411,3.2411,3.2411,3.2411,3.2412,3.2408,3.2407,3.2411,3.2411,3.2411,3.2411,3.2411,3.2411,3.2372,3.2376,3.2378,3.2384,3.2387,3.2391,3.2393,3.2395,3.2397,3.2402,3.2404,3.2406,3.2408,3.2411,3.2414,3.2414,3.2415,3.2416,3.2416,3.2412,3.2412,3.2412,3.2411,3.2416,3.2416,3.242,3.242,3.242]}]]